| time (UTC) | temp C | wind direction | speed KPH | gust KPH | rain 1hr cm | rain 24hr cm | rain mn cm | humidity % | barometer mb |
| 20260904103049 | 21 | 218 | 0.0 | 0.0 | 0.00 | 0.30 | 0.00 | 93 | 1007.2 |
| 20260904101538 | 21 | 218 | 0.0 | 3.2 | 0.00 | 0.30 | 0.00 | 93 | 1007.1 |
| 20260904100034 | 21 | 209 | 0.0 | 0.0 | 0.00 | 0.30 | 0.00 | 92 | 1007.1 |
| 20260904094531 | 21 | 209 | 0.0 | 0.0 | 0.00 | 0.30 | 0.00 | 92 | 1007.2 |
| 20260904093030 | 21 | 259 | 0.0 | 0.0 | 0.00 | 0.30 | 0.00 | 92 | 1007.2 |
| 20260904091530 | 22 | 259 | 0.0 | 0.0 | 0.00 | 0.30 | 0.00 | 92 | 1007.1 |
| 20260904090022 | 22 | 261 | 0.0 | 1.6 | 0.00 | 0.30 | 0.00 | 90 | 1007.0 |
| 20260904084520 | 22 | 153 | 0.0 | 0.0 | 0.00 | 0.30 | 0.00 | 89 | 1006.8 |
| 20260904083015 | 23 | 208 | 0.0 | 1.6 | 0.00 | 0.30 | 0.00 | 88 | 1006.6 |
| 20260904081514 | 23 | 237 | 0.0 | 4.8 | 0.00 | 0.30 | 0.00 | 89 | 1006.4 |
| 20260904080012 | 23 | 251 | 0.0 | 6.4 | 0.00 | 0.30 | 0.00 | 90 | 1006.4 |
| 20260904074527 | 23 | 255 | 1.6 | 6.4 | 0.00 | 0.30 | 0.00 | 89 | 1006.5 |
| 20260904073017 | 23 | 242 | 0.0 | 1.6 | 0.00 | 0.30 | 0.00 | 89 | 1006.7 |
| 20260904071508 | 23 | 186 | 0.0 | 0.0 | 0.00 | 0.30 | 0.00 | 89 | 1006.8 |
| 20260904070007 | 23 | 186 | 0.0 | 0.0 | 0.00 | 0.30 | 0.00 | 89 | 1006.9 |
| 20260904064510 | 23 | 186 | 0.0 | 1.6 | 0.00 | 0.30 | 0.00 | 88 | 1007.0 |
| 20260904063106 | 23 | 159 | 0.0 | 0.0 | 0.00 | 0.30 | 0.00 | 88 | 1007.1 |
| 20260904061558 | 23 | 159 | 0.0 | 1.6 | 0.00 | 0.30 | 0.00 | 88 | 1007.1 |
| 20260904060055 | 23 | 196 | 0.0 | 3.2 | 0.00 | 0.30 | 0.00 | 87 | 1007.1 |
| 20260904054553 | 23 | 118 | 0.0 | 8.0 | 0.00 | 0.30 | 0.00 | 86 | 1007.2 |
| 20260904053052 | 24 | 171 | 0.0 | 4.8 | 0.00 | 0.30 | 0.00 | 87 | 1007.2 |
| 20260904051552 | 24 | 215 | 0.0 | 3.2 | 0.00 | 0.30 | 0.00 | 86 | 1007.1 |
| 20260904050023 | 24 | 182 | 0.0 | 0.0 | 0.00 | 0.30 | 0.00 | 86 | 1007.2 |
| 20260904044522 | 24 | 216 | 0.0 | 1.6 | 0.00 | 0.30 | 0.00 | 86 | 1007.2 |
| 20260904043018 | 25 | 166 | 0.0 | 8.0 | 0.00 | 0.30 | 0.00 | 85 | 1007.3 |
| 20260904041526 | 25 | 134 | 1.6 | 6.4 | 0.00 | 0.30 | 0.00 | 86 | 1007.5 |
| 20260904040019 | 25 | 148 | 0.0 | 1.6 | 0.00 | 0.30 | 0.00 | 84 | 1007.5 |
| 20260904034516 | 25 | 134 | 0.0 | 4.8 | 0.00 | 0.30 | 0.00 | 86 | 1007.6 |
| 20260904033014 | 24 | 138 | 0.0 | 3.2 | 0.00 | 0.30 | 0.00 | 86 | 1007.6 |
| 20260904031513 | 24 | 140 | 0.0 | 3.2 | 0.00 | 0.30 | 0.00 | 86 | 1007.6 |
| 20260904030011 | 24 | 173 | 0.0 | 4.8 | 0.00 | 0.30 | 0.00 | 83 | 1007.6 |
| 20260904024511 | 24 | 205 | 0.0 | 1.6 | 0.00 | 0.30 | 0.00 | 83 | 1007.4 |
| 20260904023046 | 24 | 196 | 0.0 | 0.0 | 0.00 | 0.30 | 0.00 | 84 | 1007.3 |
| 20260904021540 | 25 | 182 | 0.0 | 3.2 | 0.00 | 0.30 | 0.00 | 83 | 1007.2 |
| 20260904020034 | 25 | 145 | 0.0 | 4.8 | 0.00 | 0.30 | 0.00 | 80 | 1007.1 |
| 20260904014547 | 25 | 168 | 3.2 | 8.0 | 0.00 | 0.30 | 0.00 | 82 | 1007.0 |
| 20260904013035 | 25 | 212 | 0.0 | 3.2 | 0.00 | 0.30 | 0.00 | 79 | 1007.1 |
| 20260904011530 | 25 | 176 | 0.0 | 3.2 | 0.00 | 0.30 | 0.00 | 79 | 1007.0 |
| 20260904010104 | 25 | 208 | 0.0 | 9.7 | 0.00 | 0.30 | 0.00 | 76 | 1007.0 |
| 20260904004559 | 26 | 171 | 0.0 | 8.0 | 0.00 | 0.30 | 0.00 | 75 | 1006.9 |
| 20260904003102 | 26 | 147 | 3.2 | 8.0 | 0.00 | 0.30 | 0.00 | 73 | 1006.9 |
| 20260904001554 | 27 | 215 | 0.0 | 11.3 | 0.00 | 0.30 | 0.00 | 71 | 1007.1 |
| 20260904000053 | 27 | 146 | 4.8 | 14.5 | 0.00 | 0.30 | 0.00 | 69 | 1006.7 |
| 20260903234554 | 28 | 182 | 6.4 | 16.1 | 0.00 | 0.30 | 0.00 | 68 | 1006.6 |
| 20260903233103 | 28 | 155 | 8.0 | 20.9 | 0.00 | 0.30 | 0.00 | 66 | 1006.5 |
| 20260903231550 | 28 | 196 | 8.0 | 22.5 | 0.00 | 0.30 | 0.00 | 65 | 1006.6 |
| 20260903230053 | 30 | 207 | 8.0 | 20.9 | 0.00 | 0.30 | 0.00 | 63 | 1006.6 |
| 20260903224546 | 30 | 190 | 1.6 | 19.3 | 0.00 | 0.30 | 0.00 | 62 | 1006.5 |
| 20260903223013 | 30 | 173 | 8.0 | 17.7 | 0.00 | 0.30 | 0.00 | 60 | 1006.6 |
| 20260903221519 | 30 | 134 | 6.4 | 17.7 | 0.00 | 0.30 | 0.00 | 60 | 1006.7 |
| 20260903220128 | 30 | 190 | 1.6 | 16.1 | 0.00 | 0.30 | 0.00 | 61 | 1006.9 |
| 20260903214539 | 31 | 180 | 4.8 | 20.9 | 0.00 | 0.30 | 0.00 | 57 | 1006.9 |
| 20260903213038 | 31 | 165 | 9.7 | 20.9 | 0.00 | 0.30 | 0.00 | 57 | 1006.9 |
| 20260903213036 | 31 | 137 | 9.7 | 20.9 | 0.00 | 0.30 | 0.00 | 57 | 1006.9 |
| 20260903211533 | 30 | 94 | 1.6 | 16.1 | 0.00 | 0.30 | 0.00 | 57 | 1007.1 |
| 20260903210032 | 31 | 117 | 6.4 | 19.3 | 0.00 | 0.30 | 0.00 | 56 | 1007.5 |
| 20260903204533 | 30 | 155 | 9.7 | 17.7 | 0.00 | 0.30 | 0.00 | 56 | 1007.4 |
| 20260903203032 | 30 | 223 | 6.4 | 16.1 | 0.00 | 0.30 | 0.00 | 56 | 1007.5 |
| 20260903201530 | 29 | 194 | 6.4 | 14.5 | 0.00 | 0.30 | 0.00 | 57 | 1007.4 |
| 20260903200028 | 29 | 146 | 9.7 | 20.9 | 0.00 | 0.30 | 0.00 | 58 | 1007.2 |
| 20260903194526 | 30 | 203 | 11.3 | 25.7 | 0.00 | 0.30 | 0.00 | 56 | 1007.4 |
| 20260903193021 | 31 | 113 | 11.3 | 22.5 | 0.00 | 0.30 | 0.00 | 56 | 1007.7 |
| 20260903191512 | 30 | 157 | 6.4 | 17.7 | 0.00 | 0.30 | 0.00 | 61 | 1007.9 |
| 20260903190010 | 28 | 132 | 3.2 | 17.7 | 0.00 | 0.30 | 0.00 | 64 | 1007.9 |
| 20260903184506 | 29 | 115 | 3.2 | 14.5 | 0.00 | 0.30 | 0.00 | 62 | 1008.3 |
| 20260903183001 | 27 | 116 | 4.8 | 14.5 | 0.00 | 0.30 | 0.00 | 66 | 1009.0 |
| 20260903181601 | 28 | 136 | 3.2 | 14.5 | 0.00 | 0.30 | 0.00 | 65 | 1009.0 |
| 20260903180058 | 27 | 119 | 6.4 | 14.5 | 0.00 | 0.30 | 0.00 | 68 | 1008.8 |
| 20260903174555 | 27 | 120 | 3.2 | 16.1 | 0.00 | 0.30 | 0.00 | 70 | 1008.8 |
| 20260903173057 | 28 | 150 | 8.0 | 16.1 | 0.00 | 0.30 | 0.00 | 64 | 1008.5 |
| 20260903171551 | 26 | 137 | 6.4 | 11.3 | 0.00 | 0.30 | 0.00 | 72 | 1008.7 |
| 20260903170048 | 26 | 114 | 6.4 | 12.9 | 0.00 | 0.30 | 0.00 | 70 | 1008.9 |
| 20260903164547 | 25 | 156 | 3.2 | 11.3 | 0.00 | 0.30 | 0.00 | 74 | 1008.8 |
| 20260903163039 | 25 | 119 | 6.4 | 14.5 | 0.00 | 0.30 | 0.00 | 71 | 1008.5 |
| 20260903161501 | 26 | 118 | 11.3 | 16.1 | 0.00 | 0.30 | 0.00 | 69 | 1008.4 |
| 20260903160059 | 27 | 167 | 9.7 | 14.5 | 0.00 | 0.30 | 0.30 | 68 | 1008.6 |
| 20260903154556 | 25 | 132 | 6.4 | 12.9 | 0.00 | 0.30 | 0.30 | 73 | 1008.5 |
| 20260903153055 | 25 | 178 | 3.2 | 9.7 | 0.00 | 0.30 | 0.30 | 71 | 1008.8 |
| 20260903151556 | 25 | 132 | 1.6 | 8.0 | 0.00 | 0.30 | 0.30 | 74 | 1008.7 |
| 20260903150109 | 23 | 242 | 3.2 | 9.7 | 0.00 | 0.30 | 0.30 | 80 | 1008.8 |
| 20260903144533 | 23 | 214 | 1.6 | 6.4 | 0.00 | 0.30 | 0.30 | 79 | 1008.4 |
| 20260903143028 | 23 | 116 | 4.8 | 12.9 | 0.00 | 0.30 | 0.30 | 80 | 1008.2 |
| 20260903141528 | 22 | 75 | 0.0 | 3.2 | 0.00 | 0.30 | 0.30 | 83 | 1008.0 |
| 20260903140035 | 22 | 40 | 0.0 | 6.4 | 0.03 | 0.30 | 0.30 | 84 | 1008.4 |
| 20260903134520 | 21 | 130 | 0.0 | 4.8 | 0.03 | 0.30 | 0.30 | 86 | 1008.8 |
| 20260903133021 | 21 | 232 | 0.0 | 12.9 | 0.03 | 0.30 | 0.30 | 86 | 1009.3 |
| 20260903131524 | 22 | 182 | 0.0 | 4.8 | 0.03 | 0.30 | 0.30 | 84 | 1009.3 |
| 20260903130017 | 22 | 279 | 0.0 | 9.7 | 0.00 | 0.28 | 0.28 | 84 | 1009.8 |
| 20260903124516 | 22 | 249 | 3.2 | 14.5 | 0.00 | 0.28 | 0.28 | 85 | 1009.2 |
| 20260903123020 | 22 | 207 | 1.6 | 19.3 | 0.00 | 0.28 | 0.28 | 83 | 1009.7 |
| 20260903121513 | 22 | 245 | 8.0 | 19.3 | 0.00 | 0.28 | 0.28 | 86 | 1009.2 |
| 20260903120012 | 21 | 271 | 9.7 | 20.9 | 0.03 | 0.28 | 0.28 | 88 | 1008.8 |
| 20260903114511 | 21 | 256 | 4.8 | 19.3 | 0.13 | 0.28 | 0.28 | 88 | 1008.8 |
| 20260903113011 | 21 | 232 | 1.6 | 14.5 | 0.28 | 0.28 | 0.28 | 88 | 1008.7 |
| 20260903111540 | 21 | 236 | 3.2 | 9.7 | 0.28 | 0.28 | 0.28 | 88 | 1008.5 |
| 20260903110040 | 22 | 265 | 1.6 | 11.3 | 0.25 | 0.25 | 0.25 | 85 | 1009.1 |
| 20260903104537 | 22 | 355 | 8.0 | 19.3 | 0.15 | 0.15 | 0.15 | 89 | 1008.8 |